TimeEDT,TemperatureF,Dew PointF,Humidity,Sea Level PressureIn,VisibilityMPH,Wind Direction,Wind SpeedMPH,Gust SpeedMPH,PrecipitationIn,Events,Conditions,WindDirDegrees,DateUTC
12:54 AM,44.1,39.9,85,30.14,10.0,WSW,6.9,-,N/A,,Mostly Cloudy,240,2012-09-24 04:54:00
1:54 AM,43.0,39.9,89,30.14,10.0,SW,5.8,-,N/A,,Scattered Clouds,230,2012-09-24 05:54:00
2:54 AM,42.1,39.0,89,30.13,10.0,SW,4.6,-,N/A,,Scattered Clouds,220,2012-09-24 06:54:00
3:54 AM,44.1,39.9,85,30.14,10.0,Calm,Calm,-,N/A,,Scattered Clouds,0,2012-09-24 07:54:00
4:54 AM,41.0,39.0,93,30.15,10.0,Calm,Calm,-,N/A,,Scattered Clouds,0,2012-09-24 08:54:00
5:54 AM,39.0,37.0,93,30.14,10.0,SW,5.8,-,N/A,,Partly Cloudy,220,2012-09-24 09:54:00
6:54 AM,39.9,37.9,93,30.15,10.0,SW,4.6,-,N/A,,Scattered Clouds,230,2012-09-24 10:54:00
7:54 AM,43.0,41.0,93,30.17,10.0,SW,9.2,-,N/A,,Scattered Clouds,230,2012-09-24 11:54:00
8:54 AM,48.0,42.1,80,30.17,10.0,SW,11.5,-,N/A,,Partly Cloudy,230,2012-09-24 12:54:00
9:54 AM,52.0,42.1,69,30.17,10.0,West,12.7,-,N/A,,Partly Cloudy,260,2012-09-24 13:54:00
10:54 AM,55.0,41.0,59,30.16,10.0,WSW,11.5,-,N/A,,Partly Cloudy,250,2012-09-24 14:54:00
11:54 AM,57.0,41.0,55,30.16,10.0,WSW,15.0,23.0,N/A,,Mostly Cloudy,250,2012-09-24 15:54:00
12:54 PM,57.0,39.0,51,30.14,10.0,West,11.5,-,N/A,,Scattered Clouds,260,2012-09-24 16:54:00
1:54 PM,60.1,41.0,49,30.11,10.0,SW,18.4,24.2,N/A,,Mostly Cloudy,230,2012-09-24 17:54:00
2:54 PM,59.0,39.0,48,30.09,10.0,West,13.8,21.9,N/A,,Mostly Cloudy,270,2012-09-24 18:54:00
3:54 PM,57.9,41.0,53,30.07,10.0,SW,16.1,27.6,N/A,,Mostly Cloudy,230,2012-09-24 19:54:00
4:54 PM,57.9,39.9,51,30.05,10.0,SSW,13.8,-,N/A,,Mostly Cloudy,210,2012-09-24 20:54:00
5:54 PM,57.0,39.0,51,30.03,10.0,SSW,12.7,-,N/A,,Mostly Cloudy,210,2012-09-24 21:54:00
6:54 PM,55.9,39.0,53,30.02,10.0,SSW,10.4,-,N/A,,Mostly Cloudy,210,2012-09-24 22:54:00
7:54 PM,52.0,39.9,63,30.01,10.0,South,4.6,-,N/A,,Mostly Cloudy,190,2012-09-24 23:54:00
8:54 PM,50.0,41.0,71,30.01,10.0,SSW,6.9,-,N/A,,Mostly Cloudy,200,2012-09-25 00:54:00
9:54 PM,50.0,39.9,68,29.99,10.0,South,6.9,-,N/A,,Scattered Clouds,190,2012-09-25 01:54:00
10:54 PM,50.0,39.9,68,30.01,10.0,SSW,10.4,-,N/A,,Scattered Clouds,210,2012-09-25 02:54:00
11:54 PM,50.0,39.9,68,30.00,10.0,SSW,10.4,-,N/A,,Partly Cloudy,200,2012-09-25 03:54:00